User: anonymous   Login
Location: Unspecified
(0.0000°N, 0.0000°E)
Time: 00:53:53
(UTC+00:00)
Language:

KUIPER-00136 - Orbit

View from above orbital plane
View from above orbital plane
View from above satellite
View from above satellite

Ground track
Ground track

The orbit is defined by the following mean orbital elements,

1 65778U          26145.43903309 +.00000000 +00000-0 +48479-3 0 00000
2 65778  51.9024  56.2153 0000949  91.9699 268.1372 14.79936042    07
Epoch (UTC): 25 May 2026 10:32:12
Eccentricity: 0.0000949
inclination: 51.9024°
perigee height: 629 km
apogee height: 630 km
right ascension of ascending node: 56.2153°
argument of perigee: 91.9699°
revolutions per day: 14.79936042
mean anomaly at epoch: 268.1372°

The dashed part of the orbit path shows where the satellite is in the earth's shadow,  

DLR